Regional Weather Roundup
Issued by NWS

Home | Current Version | Previous Version | Text Only | Print | Product List | Glossary Off
Versions: 1 2 3 4 5 6 7 8 9 10 11 12 13 14 15 16 17 18 19 20 21 22 23 24 25 26 27 28 29 30 31 32 33 34 35 36 37 38 39 40 41 42 43 44 45 46 47 48 49 50

000
ASUS43 KLSX 231907
RWRMO

WEATHER SUMMARY FOR MISSOURI
NATIONAL WEATHER SERVICE SPRINGFIELD MO
200 PM CDT WED JUL 23 2014

NOTE: "FAIR" INDICATES FEW OR NO CLOUDS BELOW 12,000 FEET WITH NO
       SIGNIFICANT WEATHER AND/OR OBSTRUCTIONS TO VISIBILITY.
       CURRENT SKY AND/OR WEATHER CONDITIONS ARE NOT AVAILABLE FOR
       CHILLICOTHE AND FARMINGTON.

MOZ001>031-035>038-043-044-053-054-232000-
...NORTHERN AND WESTERN MISSOURI...

CITY           SKY/WX    TMP DP  RH WIND       PRES   REMARKS
KANSAS CTY INT MOSUNNY   84  65  52 N17       30.16F
KANSAS C DTWN  SUNNY     88  65  46 NE15      30.13F HX  90
LEE`S SUMMIT   SUNNY     86  62  44 NE15G25   30.15F
ST JOSEPH      SUNNY     84  67  56 N12       30.17F
CHILLICOTHE      N/A     86  62  44 N14G20    30.15F
KIRKSVILLE     MOSUNNY   83  63  50 NE9G17    30.18S

$$
MOZ066>068-077>081-088>096-101>105-232000-
...SOUTHWEST MISSOURI...

CITY           SKY/WX    TMP DP  RH WIND       PRES   REMARKS
SPRINGFIELD    PTSUNNY   88  76  67 N13       30.08S HX  99
JOPLIN         CLOUDY    72  68  87 NW10      30.16F

$$
MOZ032>034-039>042-045>050-055>058-069>072-232000-
...CENTRAL MISSOURI...

CITY           SKY/WX    TMP DP  RH WIND       PRES   REMARKS
COLUMBIA       PTSUNNY   86  69  56 N15       30.11S HX  90
JEFFERSON CITY MOSUNNY   86  68  54 N12G20    30.08S
ROLLA            N/A     91  65  41 N15       30.06S HX  93
SEDALIA        MOSUNNY   87  69  54 N13       30.13F HX  91
WHITEMAN AFB   MOSUNNY   85  59  40 NE13G20   30.12F
OSAGE BEACH    SUNNY     91  66  43 N12G17    30.07F HX  94

$$
MOZ051-052-059>065-232000-
...EAST CENTRAL MISSOURI...

CITY           SKY/WX    TMP DP  RH WIND       PRES   REMARKS
ST LOUIS INTL  CLOUDY    82  69  64 NE10      30.07S
SPIRIT OF STL  LGT RAIN  78  70  76 NE9       30.07R
ST CHARLES     CLOUDY    81  70  69 NE9       30.07S

$$
MOZ072>076-082>087-097>100-106>115-232000-
...SOUTH CENTRAL AND SOUTHEAST MISSOURI...

CITY           SKY/WX    TMP DP  RH WIND       PRES   REMARKS
CAPE GIRARDEAU CLOUDY    71  68  90 S13       30.00F FOG
FARMINGTON     PTSUNNY   84  73  70 E9        30.06S HX  91
POPLAR BLUFF   TSTM      71  67  87 S8        30.05F VSB 1
WEST PLAINS    MOSUNNY   91  78  65 N12       30.03F HX 106

$$



USA.gov is the U.S. government's official web portal to all federal, state and local government web resources and services.